www.pogodaiklimat.ru

Погода и климат >> Архив погоды >> Австрия >> Аллентштайг


ПОГОДА в Аллентштайге

  • Прогноз погоды в Аллентштайге
  • Монитор погоды в Аллентштайге

АРХИВ ПОГОДЫ в Аллентштайге

Время (UTC), дата Ветер
(напр.,м/с)
 
Видим.   Явления Облачность Т
(С)
Тd
(С)
f
(%)
Тe
(С)
Тes
(С)
Комфортность P
(гПа)
Po
(гПа)
Тmin
(С)
Tmax
(С)
R
(мм)
R24
(мм)
S
(см)
16 11.09 СВ 1 н/о н/о +18.4 +11.8 65 +20 +20 1022.8 953.4
17 11.09 штиль 0 н/о н/о +16.6 +12.5 77 +17 +17 1023.5 953.6
18 11.09 В 1 20 км 9/0
[Ac lent Ci sp]
+16.2 +11.8 75 +17 +17 1024.0 954.0 +19.4
19 11.09 штиль 0 н/о н/о +15.2 +11.2 77 +15 +15 1025.0 954.7
20 11.09 Ю 2 н/о н/о +14.1 +11.3 83 +14 +14 1025.8 955.2
21 11.09 З 2 н/о н/о +13.3 +11.4 88 +13 +13 1026.4 955.5
22 11.09 З 2 н/о н/о +13.8 +11.6 87 +13 +13 1026.5 955.8
23 11.09 З 2 н/о н/о +13.1 +11.8 92 +12 +12 1026.9 956.0
00 12.09 З 1 н/о н/о +12.6 +11.7 94 +13 +13 1027.4 956.3
01 12.09 З 2 н/о н/о +12.0 +11.3 95 +11 +11 1027.8 956.5
02 12.09 З 2 н/о н/о +12.0 +10.6 91 +11 +11 1028.2 956.9
03 12.09 З 2 н/о н/о +11.2 +9.8 91 +10 +10 1029.0 957.4
04 12.09 ЮЗ 2 н/о н/о +10.6 +9.6 94 +9 +9 1029.4 957.6
05 12.09 ЮЗ 2 35 км ясно +10.2 +9.1 93 +9 +9 1030.0 958.1
06 12.09 штиль 0 35 км 1/1 1350 м
[Sc Ac trans]
+12.4 +9.3 81 +12 +13 1030.0 958.7 +10.0
07 12.09 З 2 н/о н/о +14.4 +10.4 77 +14 +14 1030.1 959.2
08 12.09 З 3 н/о н/о +16.9 +10.0 64 +17 +17 1030.1 959.8
09 12.09 СЗ 4 35 км 1/1 1050 м
[Cu hum Ac trans]
+17.6 +8.8 56 +17 +22 1030.1 960.0
10 12.09 З 3 н/о н/о +18.6 +9.6 56 +19 +19 1030.0 960.1
11 12.09 СЗ 3 н/о н/о +18.3 +10.6 61 +19 +19 1030.2 960.2
12 12.09 З 2 45 км 5/4 1050 м
[Cu Sc Ac trans Ci fib]
+17.8 +11.7 67 +18 +24 1030.2 960.2
13 12.09 СЗ 3 н/о н/о +17.7 +11.4 67 +18 +18 1030.3 960.2
14 12.09 З 3 н/о н/о +19.0 +11.4 61 +20 +20 1029.7 959.9
15 12.09 СЗ 2 45 км 8/8 1200 м
[Cu Sc Ac trans Ci fib]
+18.7 +11.3 62 +20 +20 1029.7 959.9
16 12.09 З 2 н/о н/о +18.8 +11.5 63 +20 +20 1029.6 959.8
17 12.09 З 2 н/о н/о +17.8 +11.2 65 +18 +18 1029.8 959.8
18 12.09 ЮЗ 1 40 км 6/1 1200 м
[Sc Ac As Ci fib]
+16.3 +10.9 70 +17 +17 1030.3 959.9 +19.3
20 12.09 ЮЗ 2 н/о н/о +14.5 +10.8 78 +14 +14 1031.3 960.4
21 12.09 ЮЗ 2 н/о н/о +13.7 +10.6 82 +13 +13 1031.9 960.7
22 12.09 ЮЗ 2 н/о н/о +13.0 +10.5 85 +12 +12 1031.8 960.5
23 12.09 ЮЗ 2 н/о н/о +12.6 +10.4 86 +12 +12 1032.1 960.7
00 13.09 ЮЗ 2 н/о н/о +13.1 +10.5 84 +12 +12 1031.6 960.3
01 13.09 ЮЗ 2 н/о н/о +13.5 +10.7 83 +13 +13 1031.5 960.3
02 13.09 ЮЗ 2 н/о н/о +14.1 +10.8 81 +14 +14 1031.1 960.1
03 13.09 ЮЗ 2 н/о н/о +14.1 +10.7 80 +14 +14 1030.9 959.9
04 13.09 ЮЗ 2 н/о н/о +13.9 +10.8 82 +13 +13 1031.1 960.0
05 13.09 З 2 20 км 9/5 1500 м
[Sc Ac lent]
+14.7 +10.9 78 +14 +14 1031.0 960.2
06 13.09 З 1 30 км 5/3 1500 м
[Sc Ac lent Ci fib]
+15.4 +11.1 76 +16 +17 1030.8 960.2 +12.2
07 13.09 СЗ 2 н/о н/о +17.1 +12.3 73 +17 +17 1030.5 960.3
08 13.09 СЗ 3 н/о н/о +18.2 +12.8 71 +19 +19 1030.4 960.4
09 13.09 З 4 30 км 6/4 750 м
[Cu hum Ac lent Ci fib]
+19.6 +12.3 63 +21 +24 комфорт 1029.7 960.2
10 13.09 СЗ 4 н/о н/о +19.9 +11.8 60 +22 +22 комфорт 1029.6 960.1
11 13.09 СЗ 4 н/о н/о +20.5 +11.8 57 +23 +23 комфорт 1029.5 960.1
12 13.09 СЗ 4 40 км 8/5 1050 м
[Cu hum Ac lent Ci fib]
+21.3 +11.7 54 +23 +26 комфорт 1029.2 960.0
13 13.09 СЗ 4 н/о н/о +22.0 +12.8 56 +25 +25 комфорт 1028.9 959.9
14 13.09 С 4 н/о н/о +21.1 +12.5 58 +23 +23 комфорт 1029.0 959.8
15 13.09 СЗ 3 40 км 9/6 1050 м
[Cu Sc Ac lent Ci fib]
+20.9 +12.8 60 +24 +24 комфорт 1028.9 959.7
16 13.09 СЗ 3 н/о н/о +20.1 +12.7 62 +22 +22 комфорт 1029.1 959.7
17 13.09 СЗ 2 н/о н/о +19.1 +12.7 66 +21 +21 комфорт 1029.6 959.9
18 13.09 СЗ 1 20 км 9/6 1500 м
[Sc Ac lent Ci fib]
+18.3 +12.8 70 +20 +20 1029.9 960.0 +22.2
19 13.09 З 2 н/о н/о +17.3 +12.8 75 +18 +18 1030.5 960.3
20 13.09 З 2 н/о н/о +16.4 +12.7 79 +17 +17 1030.9 960.5
21 13.09 З 2 н/о н/о +15.7 +12.5 81 +16 +16 1031.3 960.7
22 13.09 З 2 н/о н/о +15.0 +12.4 84 +15 +15 1031.5 960.7
23 13.09 З 2 н/о н/о +15.2 +12.5 84 +15 +15 1031.2 960.5
00 14.09 С 1 н/о н/о +14.7 +12.5 87 +15 +15 1031.7 960.8
01 14.09 СЗ 2 н/о н/о +14.5 +12.6 88 +14 +14 1031.4 960.5
02 14.09 СЗ 2 н/о н/о +14.3 +12.6 90 +14 +14 1031.4 960.5
03 14.09 СЗ 2 н/о н/о +14.2 +12.6 90 +14 +14 1031.5 960.5
04 14.09 С 1 н/о н/о +14.0 +12.5 91 +14 +14 1032.1 961.0
05 14.09 С 1 15 км 9/9 600 м
[Sc]
+13.9 +12.4 91 +14 +14 1032.4 961.3
06 14.09 штиль 0 15 км 9/9 450 м
[Sc]
+14.2 +12.5 90 +14 +14 1032.6 961.6 +13.7
07 14.09 В 2 н/о н/о +14.3 +11.6 84 +14 +14 1033.2 962.1
08 14.09 В 2 н/о н/о +14.3 +11.2 82 +14 +14 1033.3 962.2
09 14.09 штиль 0 30 км 9/9 450 м
[Cu Sc]
+15.8 +11.8 77 +16 +17 1032.8 962.1
10 14.09 В 2 н/о н/о +15.1 +11.2 78 +15 +15 1032.7 961.8
11 14.09 В 1 н/о н/о +15.7 +10.7 72 +16 +16 1032.2 961.5
12 14.09 Ю 1 40 км 9/9 600 м
[Cu Sc]
+16.1 +10.9 71 +17 +18 1031.7 961.2
13 14.09 С 1 н/о н/о +16.9 +10.6 66 +18 +18 1031.3 960.9
14 14.09 С 2 н/о н/о +17.5 +10.5 63 +18 +18 1030.6 960.4
15 14.09 штиль 0 40 км 3/3 1050 м
[Cu Sc Ac lent Ci fib]
+17.4 +10.1 62 +17 +20 1029.7 959.6
16 14.09 СВ 1 н/о н/о +16.8 +9.7 63 +18 +18 1029.3 959.0
17 14.09 СВ 2 н/о н/о +16.3 +9.9 66 +16 +16 1029.6 959.2
18 14.09 СВ 1 30 км 3/1 900 м
[Cu Sc Ci fib]
+13.9 +9.5 75 +14 +14 1030.3 959.3 +18.2
19 14.09 СВ 1 н/о н/о +13.1 +9.6 79 +13 +13 1030.7 959.5
20 14.09 СВ 2 н/о н/о +11.5 +9.1 85 +10 +10 1031.3 959.6
21 14.09 В 1 н/о н/о +10.4 +8.5 88 +10 +10 1031.5 959.5
22 14.09 СВ 1 н/о н/о +10.9 +8.0 82 +11 +11 1031.4 959.5
23 14.09 ЮВ 1 н/о н/о +10.9 +7.2 78 +11 +11 1030.7 958.9
00 15.09 ЮВ 2 н/о н/о +9.3 +7.1 86 +8 +8 1030.6 958.4
01 15.09 ЮВ 2 н/о н/о +9.7 +7.6 87 +8 +8 1029.7 957.7
02 15.09 В 2 н/о н/о +8.6 +7.1 90 +7 +7 1029.6 957.3
03 15.09 В 2 н/о н/о +8.9 +6.2 83 +7 +7 1029.1 956.9
04 15.09 СВ 1 н/о н/о +7.3 +5.9 91 +6 +6 1029.2 956.6
05 15.09 ЮВ 1 35 км 1/0
[Ci fib]
+7.9 +5.7 86 +7 +7 1028.9 956.5
06 15.09 ЮВ 2 40 км 1/0
[Ci fib]
+9.5 +6.5 82 +8 +9 1028.4 956.4 +7.1
07 15.09 Ю 2 н/о н/о +12.0 +7.2 72 +11 +11 1027.5 956.2
08 15.09 Ю 2 н/о н/о +15.6 +9.0 65 +16 +16 1026.2 955.8
09 15.09 В 1 40 км 3/1 840 м
[Cu hum Ci fib]
+17.5 +10.0 61 +19 +26 1025.5 955.7
10 15.09 ЮЗ 1 н/о н/о +19.4 +11.1 59 +22 +22 комфорт 1024.6 955.3
11 15.09 В 2 н/о н/о +19.9 +11.3 58 +22 +22 комфорт 1023.8 954.6
12 15.09 СВ 2 40 км 6/1 1050 м
[Cu hum Ci fib]
+21.4 +12.1 55 +24 +31 комфорт 1022.5 953.8
13 15.09 СВ 1 н/о н/о +22.3 +12.0 52 +25 +25 комфорт 1021.9 953.4
14 15.09 В 3 н/о н/о +22.0 +11.9 53 +24 +24 комфорт 1021.1 952.6
15 15.09 ЮВ 2 60 км 3/0
[Ci fib]
+21.8 +12.9 57 +24 +27 комфорт 1020.2 951.8
16 15.09 ЮВ 2 н/о н/о +21.6 +13.2 59 +24 +24 комфорт 1019.8 951.3
17 15.09 В 2 н/о н/о +19.4 +13.3 68 +21 +21 комфорт 1020.1 951.1
18 15.09 З 1 45 км 9/0
[Ci fib]
+17.4 +12.6 73 +18 +18 1020.7 951.3 +22.6
19 15.09 З 3 н/о н/о +17.5 +11.7 69 +18 +18 1020.8 951.3
20 15.09 З 3 н/о н/о +16.4 +11.9 75 +16 +16 1021.1 951.3
21 15.09 З 3 н/о н/о +16.2 +11.5 74 +16 +16 1021.1 951.3
22 15.09 З 3 н/о н/о +16.3 +11.3 72 +16 +16 1021.2 951.4
23 15.09 З 3 н/о н/о +16.2 +11.4 73 +16 +16 1020.9 951.1
00 16.09 ЮЗ 2 н/о н/о +15.5 +11.6 78 +15 +15 1020.7 950.8
01 16.09 З 2 н/о н/о +15.6 +11.7 78 +16 +16 1020.3 950.4
02 16.09 З 2 н/о н/о +15.3 +11.9 80 +15 +15 1020.0 950.1
03 16.09 ЮЗ 3 н/о н/о +15.1 +11.9 81 +14 +14 1020.0 950.0
04 16.09 З 2 н/о н/о +14.1 +11.7 85 +14 +14 1019.9 949.7
05 16.09 З 2 40 км 4/0
[Ac lent Ci fib]
+13.5 +11.6 88 +13 +13 1019.6 949.3
06 16.09 СЗ 3 40 км 4/0
[Ac lent Ci fib]
+14.8 +11.8 82 +14 +14 1019.7 949.7 +13.5
07 16.09 СЗ 3 н/о н/о +16.4 +11.8 74 +16 +16 1019.7 950.0
08 16.09 СЗ 3 н/о н/о +18.0 +11.6 66 +18 +18 1019.8 950.5
09 16.09 З 3 60 км 6/0
[Ac lent Ci fib]
+20.2 +11.1 56 +22 +27 комфорт 1018.9 950.2
10 16.09 З 2 н/о н/о +20.2 +10.4 53 +22 +22 комфорт 1018.9 950.1
11 16.09 З 3 н/о н/о +21.2 +9.5 47 +23 +23 комфорт 1018.0 949.5
12 16.09 С 2 60 км 5/0
[Ac trans Ci sp]
+21.8 +9.0 44 +23 +30 комфорт 1016.9 948.6
13 16.09 СЗ 2 н/о н/о +22.4 +9.5 44 +24 +24 комфорт 1016.1 948.0
14 16.09 З 2 н/о н/о +22.3 +8.3 41 +24 +24 комфорт 1015.7 947.6
15 16.09 СЗ 3 60 км 9/0
[Ac As]
+21.3 +9.5 47 +23 +24 комфорт 1015.8 947.5
16 16.09 З 2 н/о н/о +20.9 +9.4 48 +23 +23 комфорт 1015.4 947.0
17 16.09 З 2 н/о н/о +19.8 +10.6 55 +22 +22 комфорт 1015.4 946.8
18 16.09 З 2 20 км 10/0
[Ac As]
+18.8 +11.6 63 +20 +20 1015.8 947.0 +22.8
19 16.09 СЗ 1 н/о н/о +18.1 +12.0 68 +19 +19 1016.3 947.3
20 16.09 СЗ 2 н/о н/о +17.7 +11.9 69 +18 +18 1016.5 947.4 0.0
21 16.09 З 2 н/о н/о +16.9 +10.3 65 +17 +17 1016.7 947.3 0.0
22 16.09 З 2 н/о н/о +16.3 +10.6 69 +16 +16 1016.2 946.7 0.0
23 16.09 З 2 н/о н/о +16.3 +10.8 70 +16 +16 1016.1 946.6
00 17.09 З 2 н/о н/о +15.9 +10.5 70 +16 +16 1016.3 946.7 0.0
01 17.09 З 1 н/о н/о +15.8 +10.2 69 +17 +17 1016.0 946.4
02 17.09 З 2 н/о н/о +15.5 +10.4 72 +15 +15 1015.8 946.2 0.0
03 17.09 З 2 н/о н/о +15.0 +10.8 76 +15 +15 1015.6 945.9 0.0
04 17.09 СЗ 3 н/о н/о +14.0 +11.2 83 +13 +13 1015.9 945.9 0.0
05 17.09 З 2 20 км 9/9 660 м
[Sc]
+13.7 +11.6 87 +13 +13 1016.4 946.4
06 17.09 СЗ 3 5000 м дымка {дождь} 10/10 300 м
[Frnb]
+13.5 +12.3 92 +12 +12 1016.6 946.5 +13.4 0.0
07 17.09 СЗ 2 н/о н/о +13.1 +12.4 96 +12 +12 1016.7 946.5 0.0
08 17.09 С 2 н/о н/о +12.5 +11.2 92 +12 +12 1017.3 946.9
09 17.09 С 2 1200 м морось 10/10 90 м
[Frnb]
+11.4 +10.8 96 +10 +10 1017.8 947.1
10 17.09 С 1 н/о ливневой дождь н/о +11.1 +10.5 96 +11 +11 1017.9 947.1 0.1
11 17.09 З 2 н/о н/о +12.0 +11.1 94 +11 +11 1017.3 946.8 0.0
12 17.09 З 3 30 км {морось} 9/9 360 м
[Cu Sc]
+12.9 +10.7 86 +11 +12 1016.2 946.0 0.1
13 17.09 СЗ 4 н/о н/о +13.9 +11.0 83 +12 +12 1015.8 945.8
14 17.09 СЗ 3 н/о н/о +15.2 +11.6 79 +15 +15 1014.7 945.1
15 17.09 СЗ 3 н/о н/о +15.5 +11.7 78 +15 +15 1014.3 944.8
16 17.09 СЗ 3 н/о н/о +15.3 +11.4 78 +15 +15 1014.4 944.8
17 17.09 З 1 н/о н/о +14.1 +11.3 83 +14 +14 1014.6 944.7
18 17.09 З 2 20 км 3/1 960 м
[Sc diur, vesp Ci fib]
+13.5 +9.1 75 +13 +13 1015.5 945.4 +15.8 0.1
19 17.09 З 2 н/о н/о +12.4 +8.8 79 +12 +12 1016.3 945.9
20 17.09 З 3 н/о н/о +12.5 +8.6 77 +11 +11 1016.8 946.4
21 17.09 СЗ 4 н/о н/о +12.6 +8.2 75 +11 +11 1017.3 946.8
22 17.09 СЗ 4 н/о н/о +12.0 +7.4 73 +10 +10 1017.6 947.0
23 17.09 СЗ 5 н/о н/о +11.6 +6.3 70 +9 +9 1018.5 947.7
00 18.09 СЗ 4 н/о н/о +11.0 +5.6 69 +9 +9 1019.4 948.4
01 18.09 СЗ 5 н/о н/о +9.8 +3.6 65 +7 +7 1020.2 948.8
02 18.09 СЗ 5 н/о н/о +8.6 +2.6 66 +5 +5 1021.1 949.3
03 18.09 СЗ 4 н/о н/о +7.6 +2.9 72 +4 +4 1021.7 949.6
04 18.09 СЗ 4 н/о н/о +7.0 +3.2 77 +4 +4 1022.5 950.2
05 18.09 З 4 30 км 3/1 1050 м
[Sc Ci fib]
+6.3 +2.9 79 +3 +3 1023.7 951.2
06 18.09 СЗ 3 40 км 1/1 1050 м
[Sc Ci fib]
+6.8 +5 +6 1024.0 951.6 +6.2
07 18.09 СЗ 4 н/о н/о +8.0 +2.8 70 +5 +5 1024.4 952.2
08 18.09 СЗ 4 н/о н/о +8.9 +2.1 62 +6 +6 1024.7 952.7
09 18.09 СЗ 5 40 км 1/1 900 м
[Cu hum Ci fib]
+10.0 +1.1 54 +7 +11 1024.6 952.9
10 18.09 СЗ 3 н/о н/о +10.9 +0.5 49 +9 +9 1024.5 953.0
11 18.09 З 3 н/о н/о +12.3 +1.2 47 +11 +11 1023.8 952.7
12 18.09 З 2 >70 км 1/1 1200 м
[Cu hum Ci fib]
+13.0 -1.0 38 +13 +21 1023.3 952.4
13 18.09 СЗ 3 н/о н/о +13.7 0.0 39 +13 +13 1022.9 952.2
14 18.09 СЗ 3 н/о н/о +13.4 -1.9 35 +13 +13 1022.9 952.1
15 18.09 СЗ 2 >70 км 1/1 1500 м
[Cu hum Ci fib]
+13.3 -0.1 40 +13 +15 1022.7 951.9
16 18.09 СЗ 3 н/о н/о +12.7 -0.7 40 +12 +12 1022.7 951.8

 

Местоположение метеостанции Аллентштайг (Австрия): широта 48.68 долгота 15.37 высота над уровнем моря 607 м.

В архиве по умолчанию представлена погода в Аллентштайге за последнюю неделю. Архивные данные за месяц целиком и за предыдущие месяцы, начиная с января 2011 года, Вы можете получить, выбрав интересующий диапазон дат из раскрывающегося списка и нажав кнопку "Ввод!".


*Определитесь, кто Вы:
робот инопланетянин человек

Внимание! Время в таблицах - всемирное. Для получения местного времени необходимо прибавить поправку, которая равна 1 ч.

Смотрите также архив погоды в соседних городах и на ближайших метеорологических станциях:

Погода в Цветле (Австрия) (14 км)
Погода в Гарс-ам-Кампе (Австрия) (25 км)
Погода в Лангенлойсе (Австрия) (34 км)
Погода в Кремс-ан-дер-Донау (Австрия) (34 км)
Погода в Вайтре (Австрия) (36 км)
Погода в Личау (Австрия) (39 км)
Погода в Яуерлинге (Австрия) (39 км)
Погода в Бернкопфе (Австрия) (42 км)
Погода в Реце (Австрия) (44 км)
Погода в Церкви Мыслова (Чехия) (56 км)

Пояснения к столбцам:

Ветер - указаны скорость ветра в м/с - средняя за 10 мин, порывы в срок и между сроками (в фигурных скобках) и направление, откуда дует ветер: С - северный, СВ - северо-восточный, В - восточный, ЮВ - юго-восточный, Ю - южный, ЮЗ - юго-западный, З - западный, СЗ - северо-западный.
Видимость - горизонтальная дальность видимости в метрах или километрах. При видимости от 1 до 10 км при отсутствии осадков обычно наблюдается дымка, при ухудшении видимости до 1 км и менее - туман. В сухую погоду видимость может ухудшаться дымом, пылью или мглою.
Явления - указаны атмосферные явления, наблюдавшиеся в срок или в последний час перед сроком; фигурными скобками обозначены явления, наблюдавшиеся между сроками (за 1-3 часа до срока); квадратными скобками обозначены град или гололедные отложения с указанием их диаметра в мм.
Облачность - указаны через наклонную черту общая и нижняя облачность в баллах и высота нижней границы облаков в метрах; квадратными скобками обозначены формы облаков: Ci - перистые, Cs - перисто-слоистые, Cc - перисто-кучевые, Ac - высококучевые, As - высокослоистые, Sc - слоисто-кучевые, Ns - слоисто-дождевые, Cu - кучевые, Cb - кучево-дождевые. Подробнее классификацию облаков см. в Атласе облаков (PDF).
T - Температура воздуха - температура, измеренная на высоте 2 м над землей.
Td - Температура точки росы - температура, при понижении до которой содержащийся в воздухе водяной пар достигнет насыщения.
f - Относительная влажность воздуха - влажноcть воздуха, измеренная на высоте 2 м над землей.
Te - Эффективная температура - температура, которую ощущает одетый по сезону человек в тени. Характеристика душности погоды. При расчете учитывается влияние влажности воздуха и скорости ветра на теплоощущения человека.
Tes - Эффективная температура на солнце - температура, которую ощущает человек, с поправкой на солнечный нагрев. Характеристика знойности погоды. Зависит от высоты солнца над горизонтом, облачности и скорости ветра. Ночью, в пасмурную погоду, а также при ветре 12 м/с и более поправка равна нулю.
P - Атмосферное давление - приведенное к уровню моря атмосферное давление.
Po - Атмосферное давление - измеренное на уровне метеостанции атмосферное давление.
Tmin - Минимальная температура - минимум температуры воздуха на высоте 2 м над землей.
Tmax - Максимальная температура - максимум температуры воздуха на высоте 2 м над землей.
R - Количество осадков - Количество выпавших осадков за период времени, мм. При наведении курсора мыши на число - период времени, за который выпало указанное количество осадков.
R24 - Количество осадков - Количество выпавших осадков за 24 часа, мм.
S - Снежный покров - Высота снежного покрова, см. При наведении курсора мыши на число - состояние снежного покрова и степень покрытия местности в баллах.